Location: Allentsteig
(48.6833°N, 15.3167°E)
Time: 11:16:14
(UTC+00:00)

Lacrosse 5 rocket - Pass Details

Date: 18 September 2020
Orbit: 460 x 636 km, 57.0° (Epoch: 24 October)

Event Time Altitude Azimuth Distance (km) Brightness Sun altitude
Rises 18:07:54 0° 261° (W) 2,735 6.2 -11.2°
Reaches altitude 10° 18:10:11 10° 269° (W) 1,872 5.4 -11.5°
Maximum altitude 18:14:13 39° 340° (NNW) 892 2.7 -12.2°
Drops below altitude 10° 18:18:27 10° 50° (NE) 1,971 3.8 -12.8°
Enters shadow 18:19:31 - 54° (NE) 2,367 4.2 -13.0°
